Powrót do katalogu

KOSMOS-2583 SUBSATELLITE

AktywnyMilitariaPO
NORAD 63330·PAYLOAD·🇷🇺 Russia
Ta nazwa satelity nie została jeszcze potwierdzona przez oficjalne źródła.

Wystrzelony Feb 5, 2025 z Plesetsk Cosmodrome

Loading…

Następne Przeloty (najbliższe 24 godziny)

TLE

ŚwieżeSource: Space-Track

Epoka: Sep 14, 2026, 20:49 UTC

1 63330U 25026F   26257.86779236  .00002480  00000-0  20828-3 0  9997
2 63330  81.9964 341.4769 0012946 121.1125 239.1368 14.97902969 81471

Śledź KOSMOS-2583 SUBSATELLITE w czasie rzeczywistym z AllMySat

Download on the App Store